This is the latest recevied weather packets stored in our database for station/object F4JUT-10. If no packets are shown the sender has not sent any weather packets the latest 10 day(s).
| Time | Temp. | Humidity | Pressure | Rain* | Wind** | Luminosity | Snow |
|---|---|---|---|---|---|---|---|
| 1778140068 | 17.22° C | 59% | 1018.3 hPa | - | - | - | - |
| 1778139167 | 16.67° C | 66% | 1018.3 hPa | - | - | - | - |
| 1778138267 | 15.56° C | 67% | 1018.3 hPa | - | - | - | - |
| 1778137367 | 15.56° C | 68% | 1018.2 hPa | - | - | - | - |
| 1778136477 | 15° C | 77% | 1018.2 hPa | - | - | - | - |
| 1778135577 | 12.78° C | 85% | 1018.1 hPa | - | - | - | - |
| 1778134677 | 11.67° C | 89% | 1018 hPa | - | - | - | - |
| 1778133776 | 11.67° C | 94% | 1018 hPa | - | - | - | - |
| 1778132876 | 10.56° C | 98% | 1018 hPa | - | - | - | - |
| 1778131976 | 9.44° C | 99% | 1017.8 hPa | - | - | - | - |
| 1778131076 | 8.33° C | 100% | 1017.8 hPa | - | - | - | - |
| 1778130176 | 8.33° C | 100% | 1017.8 hPa | - | - | - | - |
| 1778129276 | 7.78° C | 99% | 1017.7 hPa | - | - | - | - |
| 1778128376 | 7.22° C | 93% | 1017.4 hPa | - | - | - | - |
| 1778127476 | 6.67° C | 94% | 1017.5 hPa | - | - | - | - |
| 1778126576 | 6.67° C | 93% | 1017.3 hPa | - | - | - | - |
| 1778125676 | 7.22° C | 94% | 1017.2 hPa | - | - | - | - |
| 1778124776 | 7.22° C | 93% | 1017.3 hPa | - | - | - | - |
| 1778123875 | 7.78° C | 93% | 1017.1 hPa | - | - | - | - |
| 1778122975 | 7.22° C | 93% | 1017.2 hPa | - | - | - | - |
| 1778122075 | 7.78° C | 93% | 1017.3 hPa | - | - | - | - |
| 1778121175 | 7.78° C | 94% | 1017.1 hPa | - | - | - | - |
| 1778120275 | 7.78° C | 94% | 1016.9 hPa | - | - | - | - |
| 1778119375 | 8.33° C | 93% | 1016.9 hPa | - | - | - | - |
| 1778118475 | 8.33° C | 93% | 1016.9 hPa | - | - | - | - |
* Rain since midnight (hover to see other rain measurements)
** Current wind speed in m/s (hover to see current wind gust speed)